Hagerstown, MD

12:43 AM EST on February 28, 2017 (GMT -0500)
Hagerstown Regional-Henson

Weather History for KHGR - December, 2013

Change the Weather History Date:

Thursday, December 19, 2013

  Actual Average Record
Temperature  
Mean Temperature 37 °F 33 °F  
Max Temperature 50 °F 40 °F 57 °F (1997)
Min Temperature 23 °F 26 °F 19 °F (2010)
Degree Days  
Heating Degree Days 28 32  
Month to date heating degree days 587 560  
Since 1 July heating degree days 1649 1565  
Cooling Degree Days 0 0  
Month to date cooling degree days 0 0  
Year to date cooling degree days 1133 969  
Moisture  
Dew Point 23 °F    
Average Humidity 57    
Maximum Humidity 74    
Minimum Humidity 39    
Precipitation  
Precipitation 0.00 in 0.10 in 0.97 in (2008)
Month to date precipitation 2.64 1.89  
Year to date precipitation 32.57 38.29  
Sea Level Pressure  
Sea Level Pressure 30.14 in    
Wind  
Wind Speed 4 mph (South)    
Max Wind Speed 10 mph    
Max Gust Speed 15 mph    
Visibility 10 miles    
Events      
T = Trace of Precipitation, MM = Missing Value Source: NWS Daily Summary

Daily Weather History Graph

Daily Weather History Graph

Search for Another Location

Airport or City:

Trip Planner

Search our weather history database for the weather conditions in past years. The results will help you decide how hot, cold, wet, or windy it might be!

Date:

Astronomy

Dec. 19, 2013 Rise Set
Actual Time 7:27 AM EST 4:49 PM EST
Civil Twilight 6:56 AM EST 5:19 PM EST
Nautical Twilight 6:23 AM EST 5:53 PM EST
Astronomical Twilight 5:50 AM EST 6:26 PM EST
Moon 7:12 PM EST (12/19) 8:45 AM EST (12/19)
Length of Visible Light 10h 22m
Length of Day
9h 21m
Waning Gibbous, 95% of the Moon is Illuminated
Dec 19
Waning Gibbous
Dec 25
Last Quarter
Jan 1
New
Jan 7
First Quarter
Jan 15
Full

Hourly Weather History & Observations

Time (EST) Temp. Windchill Dew Point Humidity Pressure Visibility Wind Dir Wind Speed Gust Speed Precip Events Conditions
12:53 AM 28.0 °F 22.8 °F 19.0 °F 69% 30.19 in 10.0 mi SSE 4.6 mph - N/A   Clear
1:53 AM 26.1 °F 17.6 °F 18.0 °F 71% 30.19 in 10.0 mi SSE 8.1 mph - N/A   Clear
2:53 AM 28.9 °F 20.4 °F 18.0 °F 64% 30.19 in 10.0 mi South 9.2 mph - N/A   Clear
3:53 AM 27.0 °F 20.5 °F 18.0 °F 69% 30.18 in 10.0 mi South 5.8 mph - N/A   Clear
4:53 AM 28.0 °F 22.8 °F 18.0 °F 66% 30.16 in 10.0 mi SSW 4.6 mph - N/A   Clear
5:53 AM 24.1 °F - 18.0 °F 77% 30.17 in 10.0 mi Calm Calm - N/A   Clear
6:53 AM 28.0 °F 21.7 °F 18.0 °F 66% 30.17 in 10.0 mi SSW 5.8 mph - N/A   Clear
7:53 AM 25.0 °F 20.7 °F 17.1 °F 72% 30.16 in 10.0 mi West 3.5 mph - N/A   Clear
8:53 AM 28.9 °F - 19.0 °F 67% 30.17 in 10.0 mi Calm Calm - N/A   Clear
9:53 AM 30.0 °F - 19.0 °F 64% 30.17 in 10.0 mi Calm Calm - N/A   Clear
10:53 AM 30.9 °F 27.5 °F 19.0 °F 61% 30.17 in 10.0 mi WNW 3.5 mph - N/A   Clear
11:53 AM 36.0 °F - 21.0 °F 55% 30.14 in 10.0 mi Calm Calm - N/A   Clear
12:53 PM 44.1 °F 42.5 °F 21.9 °F 42% 30.11 in 10.0 mi SSW 3.5 mph - N/A   Clear
1:53 PM 48.9 °F - 25.0 °F 39% 30.09 in 10.0 mi South 4.6 mph - N/A   Clear
2:53 PM 50.0 °F - 26.1 °F 39% 30.08 in 10.0 mi South 5.8 mph - N/A   Clear
3:53 PM 48.9 °F - 27.0 °F 43% 30.09 in 10.0 mi South 8.1 mph - N/A   Clear
4:53 PM 48.9 °F - 28.0 °F 44% 30.11 in 10.0 mi SSW 5.8 mph - N/A   Clear
5:53 PM 50.0 °F - 28.0 °F 43% 30.13 in 10.0 mi SSW 5.8 mph - N/A   Clear
6:53 PM 48.0 °F - 28.0 °F 46% 30.13 in 10.0 mi SSW 4.6 mph - N/A   Clear
7:53 PM 50.0 °F - 27.0 °F 41% 30.13 in 10.0 mi SSW 5.8 mph - N/A   Clear
8:53 PM 51.1 °F - 26.1 °F 38% 30.13 in 10.0 mi SSE 5.8 mph - N/A   Clear
9:53 PM 45.0 °F 41.8 °F 28.0 °F 52% 30.13 in 10.0 mi SSE 5.8 mph - N/A   Clear
10:53 PM 45.0 °F 41.8 °F 28.0 °F 52% 30.12 in 10.0 mi South 5.8 mph - N/A   Clear
11:53 PM 46.0 °F 42.5 °F 27.0 °F 47% 30.11 in 10.0 mi South 6.9 mph - N/A   Clear